Wind_Speed
10 10 10 11 11 12 14 14 13 12 10 10 10 11 12 12 12 11 12 13 14 15 15 14 15 15 15 16 15 15 14 14 13 12 11 12 11 11 11 11 11 11 9 9
11 12 12 12 12 13 14 14 13 13 12 11 11 11 12 11 12 12 12 13 14 14 14 15 15 15 15 16 16 16 15 14 13 13 12 12 12 12 12 12 12 12 11 10
12 12 12 11 11 12 13 13 13 12 11 12 12 12 12 11 12 13 13 14 15 16 16 15 15 15 15 16 16 16 16 15 15 14 14 14 13 14 14 14 14 13 12 12
13 13 12 10 12 11 12 11 12 12 11 12 12 12 13 12 12 13 14 15 16 17 17 17 17 16 16 16 16 17 17 17 16 16 16 15 15 15 15 15 15 14 14 14
13 13 12 12 11 12 12 11 11 12 12 12 12 12 12 12 12 13 13 14 15 17 17 17 17 17 17 17 17 16 16 17 17 17 17 17 17 17 17 17 17 16 16 16
14 14 14 13 13 13 13 12 11 11 12 12 12 12 12 12 12 12 13 13 14 16 17 18 17 17 17 17 17 17 17 18 18 18 18 18 18 17 17 17 17 17 17 17
16 16 14 14 15 14 14 12 12 11 12 12 12 12 13 13 13 12 12 13 14 15 16 18 18 18 18 18 18 18 18 19 19 19 19 18 18 18 18 18 18 18 19 19
17 16 15 15 15 15 14 14 13 13 13 13 13 13 14 13 14 14 14 14 14 15 16 17 18 18 19 18 18 19 19 19 19 19 19 19 19 20 20 20 20 20 21 22
18 17 16 17 17 16 16 15 14 13 13 14 14 14 14 14 14 15 15 15 15 15 16 17 17 18 19 19 19 18 19 19 19 20 20 20 21 21 22 21 21 22 22 23
19 18 17 17 17 16 16 16 15 15 15 15 16 15 16 16 15 15 15 16 16 16 16 17 17 17 18 19 19 19 19 20 20 21 21 21 21 21 21 22 22 23 24 24
20 19 19 19 18 18 17 17 17 16 16 16 16 17 17 17 17 16 16 17 17 17 18 18 18 19 19 20 20 20 21 21 21 22 22 22 22 22 23 23 24 25 26 26
21 20 20 20 20 19 18 18 18 18 18 17 17 17 17 18 18 17 18 18 19 19 19 19 20 20 21 21 21 21 22 22 23 24 24 24 24 25 25 26 27 28 28 29
23 22 22 21 21 21 20 19 20 19 19 19 18 18 18 18 19 19 19 19 20 21 21 21 20 20 21 21 22 22 23 24 24 25 25 26 26 27 28 28 29 30 30 31
25 24 24 23 23 22 22 21 21 21 21 20 20 20 20 21 21 21 21 21 22 22 22 22 22 22 22 23 24 24 24 25 25 26 27 28 29 29 30 30 30 31 32 32
26 25 25 25 25 25 25 24 23 23 23 23 23 23 23 23 23 22 23 23 23 24 24 25 25 25 25 25 25 26 26 27 28 28 29 29 30 31 31 31 32 33 33 34
27 27 27 27 27 27 26 26 25 25 26 26 26 25 25 24 24 24 24 24 24 25 25 25 26 26 27 27 27 27 28 28 29 29 30 31 32 32 33 33 34 35 36 36
28 28 27 27 28 28 28 28 27 27 27 28 27 27 27 27 26 26 26 26 26 26 26 26 27 28 28 28 29 29 29 30 30 31 32 33 34 34 35 36 36 37 38 38
27 28 28 28 29 29 29 28 28 28 28 28 28 28 28 28 28 28 28 28 28 27 27 28 29 29 29 30 31 31 31 32 32 33 34 35 35 36 37 37 38 38 39 40
28 28 29 29 29 29 29 29 29 29 29 29 28 29 28 28 29 29 29 28 28 29 29 30 30 31 31 32 33 33 34 34 34 35 36 36 37 39 39 39 39 40 41 41
29 29 29 30 30 29 29 29 29 29 29 29 29 29 29 30 30 29 30 30 30 31 31 32 32 33 34 34 35 35 35 36 36 37 38 38 39 40 40 41 41 42 42 43
29 29 30 31 31 31 31 30 31 31 30 30 30 30 30 31 31 31 31 32 32 33 34 34 34 35 35 36 37 37 37 38 39 40 40 41 41 42 42 43 43 44 44 44
29 29 29 30 30 31 31 31 31 32 32 31 31 31 31 31 32 32 32 32 33 34 35 35 36 37 37 38 39 39 40 41 41 42 43 43 43 44 44 45 45 46 46 46
29 29 30 30 30 30 31 31 31 31 32 32 32 32 33 33 33 34 34 34 34 35 36 36 37 37 38 39 40 41 42 43 43 44 44 44 44 44 45 46 46 47 47 47
29 30 29 29 29 30 30 30 31 31 32 33 33 34 34 34 34 35 35 35 35 36 37 37 37 37 38 39 40 41 41 42 43 43 43 43 43 44 44 45 46 46 47 47
29 29 30 30 30 31 31 31 31 31 32 33 33 34 34 35 35 35 36 36 36 37 37 38 38 38 39 39 40 40 41 41 41 42 42 43 43 43 44 45 45 45 46 47
30 30 31 31 31 32 32 32 32 32 33 33 34 34 35 35 36 37 37 37 37 37 38 38 38 39 39 39 39 39 40 41 41 41 41 42 42 43 43 43 44 44 44 45
31 31 31 31 31 32 32 33 33 33 33 34 34 34 34 35 36 36 37 37 37 37 38 38 38 38 38 39 39 39 39 40 41 41 41 41 41 41 41 42 42 43 43 44
Wind_Direction
236 235 234 234 232 235 239 242 244 242 240 237 235 227 224 223 222 223 223 219 215 215 214 218 219 218 218 220 222 225 229 233 233 234 243 244 247 250 253 256 258 260 257 261
244 240 238 236 235 237 238 241 245 245 242 239 237 232 230 226 225 223 223 218 214 215 216 218 219 219 221 222 225 228 232 231 234 240 245 248 248 252 256 257 257 257 257 260
246 242 243 239 238 238 238 239 242 244 242 243 242 240 235 233 229 226 225 222 218 218 220 219 222 224 226 226 228 232 235 234 240 243 246 250 252 254 255 257 257 255 256 260
238 239 243 239 238 237 237 240 239 238 238 240 242 238 235 236 235 229 226 225 222 222 221 223 225 227 228 229 232 236 239 239 243 245 247 250 255 255 258 258 256 255 256 258
242 242 239 237 239 239 238 241 241 237 237 239 239 234 234 233 233 229 224 224 222 223 223 225 229 231 231 231 236 241 242 242 246 248 249 253 256 255 257 257 255 254 256 258
242 244 242 239 240 239 239 243 244 241 235 232 233 235 233 230 228 228 227 229 226 227 228 229 231 234 234 236 239 243 243 246 248 250 251 253 254 254 257 258 255 255 259 261
243 243 243 242 239 239 239 242 245 242 235 231 228 232 231 230 231 230 230 229 229 230 231 232 234 235 235 238 240 243 243 246 249 252 252 252 253 255 256 258 258 258 261 264
243 242 242 239 237 239 242 241 242 242 240 238 233 235 234 232 235 236 236 234 234 233 234 235 235 237 238 240 244 245 246 247 249 250 249 251 254 256 258 260 260 261 263 266
245 243 242 240 239 241 244 241 243 243 244 243 241 241 242 242 242 241 242 239 237 237 235 237 238 241 242 244 246 249 250 249 251 251 251 254 257 260 262 263 263 263 265 267
244 241 241 241 242 245 245 244 245 245 244 244 244 243 246 247 246 244 241 241 242 242 241 242 244 246 247 248 249 251 252 253 254 254 256 257 258 260 261 263 264 265 266 268
244 242 242 243 245 248 246 243 244 244 245 248 245 243 244 246 247 248 246 242 243 242 242 244 247 249 250 251 252 254 255 255 255 256 257 259 260 262 265 266 268 269 270 272
245 246 246 247 249 250 249 246 245 244 246 248 248 246 244 246 248 251 251 248 246 247 249 249 250 251 251 252 256 256 256 257 257 257 258 260 262 264 267 269 271 273 274 275
245 246 246 248 249 249 247 246 246 245 244 245 246 248 248 249 249 250 252 252 251 252 253 252 252 252 252 253 257 259 259 259 260 260 260 261 263 264 266 269 271 273 274 276
244 245 245 247 248 247 246 246 246 246 247 248 249 250 252 253 253 253 253 254 254 255 255 255 255 256 256 257 258 259 260 262 263 264 263 263 265 266 268 270 272 273 275 275
243 245 247 248 248 249 249 248 247 248 249 251 252 254 254 255 255 256 257 257 257 257 258 257 258 258 259 260 261 261 263 264 265 266 266 266 267 269 271 272 273 274 276 277
244 245 247 248 249 250 251 250 250 250 251 252 254 255 255 255 256 257 259 259 260 260 260 259 260 260 260 261 262 262 263 265 266 267 268 268 269 271 272 273 275 276 277 279
245 246 247 248 250 250 251 251 252 252 253 254 255 256 256 256 258 259 260 261 261 261 261 262 262 263 263 264 263 264 264 266 268 269 270 271 272 273 274 275 276 278 279 279
246 247 248 249 251 252 252 252 252 253 254 256 256 257 257 258 259 260 261 261 261 261 261 263 264 264 265 265 266 267 267 268 270 271 272 273 273 275 276 277 278 279 280 280
248 249 249 250 251 252 253 252 252 253 254 255 256 257 258 259 261 262 261 262 262 262 262 263 264 265 266 266 267 269 269 270 272 273 274 275 277 278 278 278 278 279 280 281
250 251 251 251 252 252 253 253 252 253 253 255 257 259 259 260 261 262 262 262 263 263 264 265 265 266 267 268 269 270 270 271 273 274 275 276 278 278 278 279 279 279 280 281
251 252 253 253 252 253 253 254 254 254 254 255 257 259 260 261 262 263 264 264 264 265 265 265 266 267 268 269 269 270 271 272 273 275 276 277 277 278 278 279 279 279 280 281
250 251 253 254 254 254 255 255 256 256 255 256 257 259 260 261 263 264 265 266 266 266 266 266 267 268 269 269 270 272 273 274 275 276 277 277 278 278 279 279 280 280 281 282
250 251 253 255 256 257 257 257 257 257 257 257 257 258 260 262 264 265 266 267 267 267 268 268 268 270 270 271 271 272 274 275 275 276 277 277 278 278 279 279 280 281 281 282
251 253 254 256 257 258 258 258 258 259 259 259 259 260 261 263 264 265 266 267 268 269 269 270 270 271 272 273 273 274 274 275 276 276 277 277 278 279 279 280 281 281 281 282
251 253 254 255 257 258 258 259 260 260 261 262 262 262 263 263 264 265 267 268 269 269 270 270 271 272 273 274 274 275 276 277 277 277 277 278 279 279 280 281 281 282 283 284
252 254 255 257 258 259 259 260 261 263 264 265 265 265 265 266 266 267 267 268 269 270 270 271 271 271 273 273 275 276 276 277 277 277 278 280 281 282 282 283 284 285 285 286
254 255 256 257 259 260 261 261 262 263 264 265 266 268 269 269 269 269 269 269 269 270 271 271 272 272 273 274 275 275 276 276 277 278 279 281 282 283 283 283 284 285 285 286
Height
5805 5805 5806 5807 5807 5808 5808 5810 5811 5813 5814 5816 5817 5818 5820 5821 5823 5824 5826 5828 5830 5832 5835 5837 5839 5842 5844 5846 5848 5850 5851 5852 5854 5855 5855 5856 5856 5857 5857 5857 5857 5857 5857 5857
5802 5802 5803 5804 5804 5805 5806 5807 5808 5809 5811 5813 5814 5815 5816 5818 5820 5822 5823 5825 5827 5830 5832 5834 5837 5839 5841 5843 5845 5846 5848 5849 5850 5851 5852 5853 5853 5853 5854 5854 5854 5854 5854 5854
5799 5799 5800 5801 5802 5802 5803 5804 5805 5806 5809 5809 5811 5812 5813 5815 5817 5818 5821 5822 5824 5826 5829 5831 5834 5835 5837 5839 5841 5843 5844 5846 5847 5848 5848 5849 5849 5849 5850 5850 5850 5851 5851 5851
5795 5797 5797 5801 5799 5799 5800 5801 5802 5803 5805 5806 5807 5809 5810 5812 5813 5815 5817 5819 5821 5823 5826 5828 5830 5832 5834 5835 5837 5838 5840 5841 5842 5843 5844 5845 5845 5846 5846 5846 5846 5847 5847 5847
5792 5793 5794 5796 5796 5796 5797 5798 5799 5800 5802 5803 5804 5805 5807 5808 5810 5812 5814 5816 5818 5820 5822 5824 5826 5828 5830 5831 5833 5834 5836 5837 5838 5839 5840 5840 5841 5841 5841 5842 5842 5842 5843 5843
5788 5789 5791 5793 5793 5793 5795 5795 5796 5797 5798 5800 5801 5803 5805 5806 5807 5809 5811 5812 5814 5816 5818 5820 5822 5824 5825 5827 5829 5830 5831 5833 5834 5834 5835 5835 5836 5836 5837 5837 5837 5838 5838 5839
5784 5785 5787 5789 5789 5790 5793 5794 5794 5794 5795 5797 5798 5801 5802 5803 5804 5806 5808 5809 5811 5813 5814 5816 5818 5820 5821 5823 5825 5826 5827 5828 5829 5829 5830 5830 5831 5831 5832 5832 5833 5833 5833 5833
5780 5781 5785 5785 5785 5787 5788 5789 5790 5791 5792 5794 5795 5797 5798 5800 5801 5803 5804 5806 5807 5808 5810 5812 5813 5815 5817 5819 5820 5821 5822 5823 5823 5824 5824 5825 5826 5826 5827 5827 5827 5828 5828 5828
5776 5779 5779 5780 5781 5783 5784 5785 5786 5788 5789 5791 5792 5793 5795 5796 5797 5799 5800 5801 5803 5804 5806 5807 5809 5811 5812 5813 5815 5816 5817 5817 5818 5818 5819 5819 5820 5820 5821 5821 5822 5822 5822 5822
5771 5773 5774 5775 5777 5778 5779 5781 5782 5784 5785 5787 5788 5790 5791 5792 5793 5795 5796 5797 5799 5800 5801 5803 5804 5806 5807 5808 5809 5810 5811 5812 5812 5813 5813 5814 5814 5814 5815 5815 5815 5815 5815 5815
5765 5768 5769 5771 5772 5774 5775 5777 5778 5779 5781 5783 5784 5785 5787 5788 5789 5790 5792 5793 5794 5795 5797 5798 5799 5800 5801 5802 5803 5804 5805 5806 5806 5807 5807 5808 5808 5808 5808 5808 5808 5808 5808 5807
5760 5762 5764 5765 5767 5768 5770 5771 5773 5775 5776 5778 5779 5780 5782 5783 5784 5785 5787 5788 5789 5790 5791 5792 5793 5794 5795 5796 5797 5798 5798 5799 5800 5800 5801 5801 5801 5801 5801 5801 5800 5800 5799 5799
5754 5756 5757 5759 5761 5762 5764 5765 5767 5769 5771 5773 5774 5775 5777 5778 5779 5780 5782 5783 5784 5785 5786 5787 5788 5788 5789 5790 5791 5791 5792 5792 5792 5793 5793 5793 5794 5794 5793 5793 5792 5791 5791 5790
5747 5749 5751 5753 5754 5756 5757 5759 5761 5763 5765 5767 5768 5770 5771 5772 5774 5775 5776 5777 5778 5779 5780 5781 5782 5782 5783 5783 5783 5784 5784 5785 5785 5785 5785 5785 5785 5785 5785 5784 5784 5783 5782 5780
5740 5742 5744 5746 5747 5749 5751 5753 5755 5757 5759 5760 5762 5763 5765 5766 5767 5768 5769 5770 5771 5772 5773 5774 5774 5775 5775 5776 5776 5776 5777 5777 5777 5777 5776 5776 5776 5776 5775 5775 5774 5773 5772 5770
5733 5734 5736 5738 5740 5742 5744 5746 5748 5750 5751 5753 5755 5756 5757 5758 5760 5761 5762 5763 5764 5764 5765 5765 5766 5767 5767 5767 5768 5768 5768 5768 5768 5768 5767 5767 5767 5766 5766 5765 5764 5763 5761 5760
5725 5727 5728 5730 5732 5734 5736 5738 5740 5742 5743 5745 5746 5748 5749 5750 5751 5752 5754 5754 5755 5756 5757 5757 5758 5758 5759 5759 5759 5759 5759 5759 5759 5758 5758 5758 5757 5756 5755 5754 5753 5752 5750 5748
5716 5718 5720 5722 5723 5725 5727 5729 5731 5733 5735 5736 5738 5739 5740 5742 5743 5744 5745 5745 5746 5747 5748 5748 5749 5749 5749 5750 5750 5750 5750 5750 5749 5749 5748 5747 5746 5745 5744 5743 5741 5740 5738 5736
5708 5710 5712 5713 5715 5717 5719 5720 5722 5724 5726 5727 5729 5730 5731 5732 5734 5735 5736 5736 5737 5738 5739 5739 5739 5739 5740 5740 5740 5740 5740 5739 5739 5738 5737 5736 5735 5734 5732 5731 5729 5727 5725 5723
5699 5701 5703 5705 5706 5708 5710 5711 5713 5715 5717 5718 5719 5721 5722 5723 5724 5725 5726 5727 5727 5728 5729 5729 5729 5729 5730 5730 5730 5729 5729 5729 5728 5727 5726 5725 5723 5722 5720 5718 5716 5714 5712 5710
5690 5692 5694 5696 5697 5699 5701 5702 5704 5706 5707 5709 5710 5711 5712 5713 5714 5715 5716 5717 5717 5718 5718 5718 5718 5718 5718 5718 5718 5718 5717 5717 5716 5715 5713 5712 5710 5709 5707 5705 5703 5701 5699 5697
5681 5683 5685 5686 5688 5689 5691 5693 5694 5696 5697 5699 5700 5701 5702 5703 5704 5705 5705 5706 5706 5706 5707 5707 5707 5707 5707 5706 5706 5705 5704 5704 5703 5701 5700 5698 5696 5695 5693 5691 5689 5687 5685 5683
5672 5674 5675 5677 5678 5680 5681 5682 5684 5685 5687 5688 5690 5691 5692 5693 5693 5694 5695 5695 5695 5695 5695 5695 5695 5695 5694 5693 5693 5692 5691 5690 5689 5687 5686 5684 5682 5681 5679 5677 5675 5672 5670 5668
5663 5665 5666 5667 5668 5670 5671 5672 5674 5675 5676 5677 5679 5680 5681 5682 5682 5683 5683 5683 5683 5683 5683 5683 5683 5682 5681 5680 5680 5679 5678 5677 5675 5673 5671 5670 5668 5666 5664 5662 5660 5658 5655 5653
5653 5655 5656 5657 5659 5660 5661 5662 5663 5664 5665 5666 5667 5668 5669 5670 5671 5671 5671 5671 5671 5671 5671 5670 5670 5669 5668 5668 5667 5666 5664 5663 5661 5660 5658 5656 5654 5652 5650 5647 5645 5643 5641 5638
5644 5646 5647 5648 5649 5650 5651 5652 5653 5654 5654 5655 5656 5656 5657 5657 5658 5658 5658 5658 5658 5658 5658 5657 5657 5656 5655 5655 5654 5652 5651 5649 5648 5646 5644 5642 5640 5638 5636 5633 5631 5629 5626 5623
5634 5636 5637 5638 5639 5639 5640 5641 5642 5643 5643 5644 5644 5645 5645 5645 5645 5645 5645 5645 5645 5645 5645 5645 5644 5643 5642 5641 5640 5639 5638 5636 5635 5633 5631 5629 5627 5625 5622 5620 5617 5615 5612 5609